[[{"header":{"parameterUnit":"m.s-1","parameterCategory":1,"la1":30.2991,"la2":30.254,"lo1":-89.0895,"lo2":-89.0444,"dy":0.0017,"dx":0.0017,"nx":28,"ny":28,"refTime":"2023-10-02T09:00:00:Z","depth":0,"parameterNumber":2,"parameterNumberName":"U-component_of_WINDS"},"data":[0,0,0,0,0,0,0,0,0,0,0,0,0,0,0,0,0,0,0,0,0,0,0,0,0,0,0,0,0,0,0,0,0,0,0,0,0,0,0,0,0,0,0,0,0,0,0,0,0,0,0,0,0,0,0,0,0,0,-3.6338,-3.6338,0,-3.6401,-3.6402,-3.6403,-3.6256,-3.6251,-3.6247,-3.6242,-3.6312,-3.6318,-3.6324,0,0,0,0,0,0,0,0,0,0,0,0,0,-3.6093,-3.6098,-3.6338,-3.6338,-3.6339,-3.6401,-3.6402,-3.6403,-3.6257,-3.6251,-3.6245,-3.624,-3.631,-3.6317,-3.6325,0,0,0,0,0,0,0,0,0,0,0,0,0,-3.6182,-3.61,-3.6337,-3.6274,-3.6268,-3.6401,-3.6402,-3.6403,-3.6258,-3.6251,-3.6244,-3.6237,-3.6307,-3.6316,-3.6326,-3.6525,0,0,-3.6354,-3.6358,0,0,0,0,0,0,0,0,-3.6177,-3.6191,-3.6282,-3.6278,-3.6273,-3.6313,-3.6341,-3.6444,-3.626,-3.6262,-3.6242,-3.6234,-3.6318,-3.6326,-3.6354,-3.6528,-3.6531,-3.6355,-3.6361,-3.6365,-3.6367,0,0,0,0,0,0,0,-3.6171,-3.6188,-3.6363,-3.6284,-3.6278,-3.6243,-3.6248,-3.636,-3.6329,-3.6261,-3.6251,-3.626,-3.6314,-3.6345,-3.6354,-3.6532,-3.6355,-3.6363,-3.6369,-3.6372,-3.6874,-3.6881,0,0,0,0,0,0,-3.6173,-3.6184,-3.6361,-3.6365,-3.6207,-3.6253,-3.6259,-3.6308,-3.6327,-3.6324,-3.6266,-3.6253,-3.6333,-3.6344,-3.6356,-3.6593,-3.6365,-3.6373,-3.6379,-3.6867,-3.6876,-3.6884,0,0,0,0,0,0,-3.6168,-3.619,-3.6358,-3.6271,-3.629,-3.6265,-3.6321,-3.6313,-3.6343,-3.6331,-3.6325,-3.6303,-3.6328,-3.6343,-3.6484,-3.6593,-3.6378,-3.6386,-3.6857,-3.6869,-3.688,-3.7066,0,0,0,0,0,0,-3.6162,-3.6189,-3.6264,-3.6274,-3.6295,-3.6485,-3.6328,-3.6319,-3.6359,-3.6343,-3.6364,-3.6361,-3.6323,-3.6471,-3.6493,-3.6602,-3.6393,-3.6848,-3.6863,-3.6876,-3.705,-3.7083,-3.711,0,0,0,0,0,-3.6153,-3.6314,-3.6268,-3.6291,-3.6388,-3.6491,-3.6503,-3.6455,-3.6369,-3.6444,-3.6436,-3.636,-3.6577,-3.6486,-3.6511,-3.6624,-3.6841,-3.6858,-3.6875,-3.7037,-3.7076,-3.711,0,0,0,0,0,0,-3.6319,-3.6314,-3.6264,-3.6432,-3.6463,-3.6466,-3.656,-3.6498,-3.6555,-3.6538,-3.6477,-3.6483,-3.6636,-3.6643,-3.6543,-3.6818,-3.6694,-3.6717,-3.6809,-3.6846,-3.6876,-3.6872,-3.6401,0,0,0,0,0,-3.6374,-3.6457,-3.6449,-3.6599,-3.6616,-3.6586,-3.6629,-3.6589,-3.6619,-3.6632,-3.6634,-3.6668,-3.6743,-3.6794,-3.6863,-3.7049,-3.7053,-3.7139,-3.7169,-3.7194,-3.7216,-3.7317,-3.7356,-3.6941,-3.6941,-3.6941,0,0,-3.6491,-3.6499,-3.6555,-3.6632,-3.6651,-3.674,-3.6598,-3.6697,-3.6763,-3.6647,-3.6781,-3.6784,-3.6817,-3.6982,-3.7055,-3.6993,-3.733,-3.7216,-3.7236,-3.7244,-3.7339,-3.7378,-3.7413,-3.6953,-3.6951,-3.6949,0,0,-3.675,-3.6763,-3.689,-3.6911,-3.6942,-3.692,-3.6951,-3.6963,-3.6961,-3.7093,-3.7009,-3.7086,-3.7217,-3.7245,-3.7276,-3.7545,-3.7479,-3.7569,-3.7727,-3.7827,-3.786,-3.7889,-3.7988,-3.8023,-3.759,-3.759,-3.7591,0,-3.6891,-3.7021,-3.6963,-3.7069,-3.7106,-3.7003,-3.7133,-3.7157,-3.7209,-3.7238,-3.7167,-3.7329,-3.7344,-3.7516,-3.7582,-3.7609,-3.7644,-3.7568,-3.7859,-3.7888,-3.7914,-3.8008,-3.8045,-3.7601,-3.76,-3.7599,-3.7598,0,-3.7195,-3.7286,-3.7385,-3.7437,-3.7485,-3.7602,-3.7564,-3.7619,-3.7575,-3.7562,-3.7699,-3.7713,-3.7784,-3.782,-3.7779,-3.7987,-3.7948,-3.7869,-3.7744,-3.7965,-3.8053,-3.8088,-3.7617,-3.7613,-3.761,-3.7607,0,0,-3.7562,-3.7579,-3.7617,-3.764,-3.7666,-3.7736,-3.7849,-3.7916,-3.7967,-3.8006,-3.8101,-3.8214,-3.8141,-3.8177,-3.8137,-3.8224,-3.844,-3.8134,-3.8134,-3.8194,-3.8674,-3.8735,-3.8778,-3.8394,-3.8401,-3.8406,-3.8672,0,-3.782,-3.8013,-3.7964,-3.8157,-3.8242,-3.8145,-3.8243,-3.8271,-3.8261,-3.8333,-3.8321,-3.8404,-3.83,-3.8322,-3.8403,-3.8396,-3.8536,-3.8376,-3.8485,-3.849,-3.8483,-3.8823,-3.8888,-3.9139,-3.8705,-3.8711,-3.8715,0,-3.8147,-3.8198,-3.84,-3.8412,-3.8446,-3.8536,-3.8594,-3.8663,-3.8692,-3.8679,-3.8719,-3.8662,-3.8776,-3.8647,-3.8804,-3.8696,-3.8737,-3.8741,-3.8749,-3.8761,-3.8619,-3.8847,-3.9217,-3.9256,-3.8768,-3.8763,-3.876,0,-3.8399,-3.8517,-3.8653,-3.8676,-3.8693,-3.8759,-3.877,-3.8792,-3.8836,-3.8887,-3.8916,-3.8981,-3.9017,-3.9069,-3.9032,-3.8941,-3.9196,-3.9063,-3.9191,-3.9193,-3.9252,-3.925,-3.9638,-3.9273,-3.9273,-3.9272,-3.9271,0,-3.8694,-3.8822,-3.8767,-3.8851,-3.8992,-3.8935,-3.9076,-3.9075,-3.9096,-3.918,-3.9099,-3.918,-3.9123,-3.92,-3.9171,-3.9308,-3.9324,-3.9318,-3.931,-3.9328,-3.9329,-3.9357,-3.934,-3.9282,-3.928,-3.9278,-3.9276,0,-3.9001,-3.8968,-3.9111,-3.9115,-3.9119,-3.9223,-3.9228,-3.9307,-3.929,-3.9397,-3.9419,-3.9394,-3.948,-3.9447,-3.9538,-3.9519,-3.9694,-3.9661,-3.9685,-3.9677,-3.9808,-3.9798,-4.0231,-4.0286,-3.9883,-3.9887,-3.989,0,-3.9193,-3.9289,-3.9303,-3.9353,-3.9369,-3.945,-3.9494,-3.9442,-3.9492,-3.9533,-3.9608,-3.9686,-3.9746,-3.9888,-3.988,-3.995,-3.992,-4.0067,-3.993,-3.9946,-3.9926,-3.9923,-3.9933,-4.0096,-4.01,-4.0104,-4.0107,0,-3.9539,-3.9518,-3.9585,-3.9647,-3.9702,-3.9748,-3.9788,-3.9833,-3.9782,-3.9843,-3.9929,-3.9976,-4.0069,-4.0149,-4.0211,-4.0223,-4.0159,-4.0149,-4.0183,-4.0205,-4.0216,-4.0215,-3.9763,-4.0141,-4.0137,-4.0135,-4.0133,-4.0132,-3.9796,-3.9878,-3.9901,-3.9979,-4.0002,-4.0041,-4.0116,-4.0108,-4.0179,-4.025,-4.0214,-4.0315,-4.0343,-4.042,-4.0441,-4.0521,-4.0464,-4.0512,-4.0525,-4.0539,-4.0557,-4.02,-4.0531,-4.053,-4.0529,-4.0529,-4.0528,0,-4.0141,-4.0151,-4.0222,-4.028,-4.0341,-4.0271,-4.0312,-4.0369,-4.0458,-4.0488,-4.0549,-4.0649,-4.0726,-4.0723,-4.0795,-4.086,-4.0832,-4.0881,-4.0877,-4.0882,-4.0602,-4.0568,-4.0902,-4.0902,-4.0902,-4.0902,-4.0902,-4.0902,-4.0328,-4.0463,-4.0445,-4.0592,-4.06,-4.0698,-4.0727,-4.0763,-4.0788,-4.0903,-4.0966,-4.0963,-4.0981,-4.1053,-4.1122,-4.1119,-4.1151,-4.1212,-4.1198,-4.0938,-4.0901,-4.0866,-4.0833,-4.1218,-4.1218,-4.1471,-4.1474,-4.1476]},{"header":{"parameterUnit":"m.s-1","parameterCategory":1,"la1":30.2991,"la2":30.254,"lo1":-89.0895,"lo2":-89.0444,"dy":0.0017,"dx":0.0017,"nx":28,"ny":28,"refTime":"2023-10-02T09:00:00:Z","depth":0,"parameterNumber":3,"parameterNumberName":"V-component_of_WINDS"},"data":[0,0,0,0,0,0,0,0,0,0,0,0,0,0,0,0,0,0,0,0,0,0,0,0,0,0,0,0,0,0,0,0,0,0,0,0,0,0,0,0,0,0,0,0,0,0,0,0,0,0,0,0,0,0,0,0,0,0,-2.983,-2.983,0,-2.9834,-2.9834,-2.9834,-2.9806,-2.9806,-2.9805,-2.9804,-2.9807,-2.9807,-2.9808,0,0,0,0,0,0,0,0,0,0,0,0,0,-2.9796,-2.9797,-2.983,-2.983,-2.983,-2.9834,-2.9834,-2.9834,-2.9806,-2.9805,-2.9805,-2.9804,-2.9806,-2.9807,-2.9808,0,0,0,0,0,0,0,0,0,0,0,0,0,-2.9806,-2.9797,-2.983,-2.9817,-2.9816,-2.9834,-2.9834,-2.9834,-2.9807,-2.9805,-2.9804,-2.9803,-2.9806,-2.9807,-2.9808,-2.9838,0,0,-2.9812,-2.9812,0,0,0,0,0,0,0,0,-2.9806,-2.9808,-2.9819,-2.9818,-2.9816,-2.9818,-2.9823,-2.9835,-2.9807,-2.981,-2.9804,-2.9803,-2.9811,-2.9812,-2.9815,-2.9838,-2.9839,-2.9812,-2.9813,-2.9813,-2.9813,0,0,0,0,0,0,0,-2.9805,-2.9807,-2.9831,-2.9819,-2.9817,-2.981,-2.981,-2.9825,-2.9817,-2.981,-2.9808,-2.9809,-2.981,-2.9814,-2.9815,-2.9839,-2.9812,-2.9813,-2.9814,-2.9814,-2.9884,-2.9885,0,0,0,0,0,0,-2.9806,-2.9807,-2.9831,-2.9831,-2.9808,-2.9811,-2.9812,-2.9819,-2.9817,-2.9815,-2.981,-2.9807,-2.9813,-2.9814,-2.9815,-2.9848,-2.9813,-2.9814,-2.9815,-2.9883,-2.9884,-2.9886,0,0,0,0,0,0,-2.9806,-2.9809,-2.9831,-2.9819,-2.9821,-2.9813,-2.9822,-2.9819,-2.9823,-2.9817,-2.9815,-2.9815,-2.9812,-2.9813,-2.9832,-2.9848,-2.9815,-2.9816,-2.9881,-2.9883,-2.9885,-2.9916,0,0,0,0,0,0,-2.9805,-2.9809,-2.9821,-2.9819,-2.9822,-2.9849,-2.9823,-2.982,-2.9825,-2.9822,-2.9821,-2.982,-2.9811,-2.9831,-2.9833,-2.9849,-2.9817,-2.988,-2.9882,-2.9884,-2.9913,-2.9918,-2.9923,0,0,0,0,0,-2.9804,-2.983,-2.9822,-2.9825,-2.9837,-2.985,-2.9851,-2.9841,-2.9827,-2.9838,-2.9834,-2.982,-2.9846,-2.9833,-2.9836,-2.9852,-2.9879,-2.9882,-2.9884,-2.9911,-2.9917,-2.9923,0,0,0,0,0,0,-2.9834,-2.9829,-2.982,-2.9847,-2.9849,-2.9845,-2.986,-2.9848,-2.9854,-2.9851,-2.9838,-2.9838,-2.9858,-2.9857,-2.9843,-2.9879,-2.986,-2.9863,-2.9879,-2.9885,-2.989,-2.9889,-2.9818,0,0,0,0,0,-2.9844,-2.9856,-2.9851,-2.9874,-2.9876,-2.9868,-2.9873,-2.9865,-2.9866,-2.9867,-2.9864,-2.9866,-2.9874,-2.988,-2.9887,-2.9913,-2.9911,-2.9926,-2.993,-2.9934,-2.9937,-2.9948,-2.9953,-2.9894,-2.9894,-2.9894,0,0,-2.9864,-2.9863,-2.9871,-2.988,-2.9881,-2.9892,-2.9869,-2.9882,-2.989,-2.9869,-2.9886,-2.9884,-2.9885,-2.9907,-2.9916,-2.9906,-2.9953,-2.9937,-2.9941,-2.9941,-2.9951,-2.9957,-2.9962,-2.9896,-2.9896,-2.9895,0,0,-2.9906,-2.9907,-2.9926,-2.9927,-2.9928,-2.9922,-2.9926,-2.9924,-2.9922,-2.9939,-2.9923,-2.9932,-2.9947,-2.9947,-2.995,-2.999,-2.9976,-2.9993,-3.0017,-3.0028,-3.0032,-3.0036,-3.0049,-3.0054,-2.9995,-2.9996,-2.9996,0,-2.993,-2.9947,-2.9937,-2.9951,-2.9954,-2.9936,-2.9953,-2.9955,-2.9958,-2.9961,-2.995,-2.9967,-2.9966,-2.9987,-2.9996,-3.0,-3.0003,-2.9992,-3.0033,-3.0037,-3.004,-3.0052,-3.0057,-2.9997,-2.9997,-2.9997,-2.9997,0,-2.9976,-2.9988,-3.0003,-3.0007,-3.0012,-3.0028,-3.0018,-3.0025,-3.0016,-3.001,-3.0027,-3.0025,-3.0031,-3.0036,-3.0027,-3.0055,-3.0048,-3.0035,-3.0015,-3.0048,-3.0058,-3.0063,-3.0,-2.9999,-2.9999,-2.9998,0,0,-3.0038,-3.0034,-3.0039,-3.0039,-3.0039,-3.0047,-3.0062,-3.0067,-3.0072,-3.0075,-3.0085,-3.0098,-3.0085,-3.0088,-3.0079,-3.0089,-3.0118,-3.0075,-3.0075,-3.0081,-3.0146,-3.0154,-3.016,-3.011,-3.0111,-3.0112,-3.0145,0,-3.0077,-3.0101,-3.0091,-3.0116,-3.0125,-3.0107,-3.0119,-3.0119,-3.0115,-3.0122,-3.0116,-3.0124,-3.0108,-3.0109,-3.0119,-3.0113,-3.0131,-3.0111,-3.0118,-3.0118,-3.0117,-3.0166,-3.0175,-3.0207,-3.0149,-3.015,-3.0151,0,-3.0126,-3.013,-3.0156,-3.0151,-3.0155,-3.0166,-3.0169,-3.0177,-3.0176,-3.0171,-3.0173,-3.0162,-3.0174,-3.0155,-3.0171,-3.0157,-3.0159,-3.0157,-3.0158,-3.0157,-3.0135,-3.0164,-3.0217,-3.0221,-3.0157,-3.0157,-3.0156,0,-3.0165,-3.0177,-3.0194,-3.0195,-3.0191,-3.0198,-3.0197,-3.0195,-3.0198,-3.0201,-3.0203,-3.0207,-3.0209,-3.0212,-3.0201,-3.0189,-3.0217,-3.0198,-3.0213,-3.0213,-3.0218,-3.0218,-3.027,-3.0223,-3.0223,-3.0223,-3.0223,0,-3.0209,-3.0225,-3.0211,-3.0221,-3.0237,-3.0225,-3.0241,-3.0238,-3.0236,-3.0244,-3.0229,-3.0237,-3.0223,-3.0229,-3.0221,-3.0233,-3.0235,-3.0231,-3.0228,-3.0231,-3.0231,-3.0231,-3.0228,-3.0224,-3.0224,-3.0224,-3.0223,0,-3.0255,-3.0247,-3.0263,-3.0257,-3.0256,-3.0268,-3.0263,-3.0271,-3.0265,-3.0275,-3.0277,-3.0267,-3.0273,-3.0263,-3.0268,-3.0262,-3.028,-3.0275,-3.028,-3.0278,-3.0292,-3.029,-3.0345,-3.0351,-3.0302,-3.0302,-3.0303,0,-3.0283,-3.0295,-3.029,-3.0294,-3.0293,-3.0301,-3.0304,-3.0291,-3.0295,-3.0294,-3.0302,-3.0306,-3.0309,-3.0319,-3.0312,-3.0315,-3.0309,-3.0328,-3.0309,-3.0311,-3.0307,-3.0306,-3.0306,-3.0331,-3.0332,-3.0332,-3.0333,0,-3.0333,-3.0327,-3.0332,-3.0335,-3.0339,-3.0341,-3.0342,-3.0346,-3.0333,-3.0338,-3.0343,-3.0346,-3.035,-3.0354,-3.0355,-3.0353,-3.034,-3.0339,-3.0342,-3.0345,-3.0346,-3.0343,-3.0288,-3.0337,-3.0337,-3.0337,-3.0336,-3.0336,-3.0369,-3.0378,-3.0375,-3.038,-3.038,-3.038,-3.0387,-3.0381,-3.0386,-3.0388,-3.0381,-3.0388,-3.0385,-3.0385,-3.0384,-3.0388,-3.038,-3.0385,-3.0386,-3.0387,-3.0388,-3.0347,-3.0389,-3.0389,-3.0388,-3.0388,-3.0388,0,-3.0416,-3.0413,-3.0418,-3.0419,-3.0423,-3.0411,-3.0411,-3.0415,-3.0421,-3.042,-3.0422,-3.0428,-3.0431,-3.0424,-3.0426,-3.0431,-3.0425,-3.0432,-3.0431,-3.043,-3.0397,-3.0393,-3.0437,-3.0437,-3.0437,-3.0437,-3.0437,-3.0437,-3.0441,-3.0454,-3.0448,-3.0459,-3.0456,-3.0463,-3.0463,-3.0463,-3.0462,-3.0469,-3.0471,-3.0467,-3.0462,-3.0464,-3.0466,-3.0464,-3.0464,-3.0473,-3.0468,-3.0437,-3.0432,-3.0428,-3.0424,-3.0473,-3.0473,-3.05,-3.05,-3.0501]}]]